Notices

What's New in latest Release from April 7th, 2021:

- Updated Glossary, including Speed of Maximum Gust, and Total Hourly Precipitation

- Updated national and regional climate services offices contacts and prices information

- Addition of station inventory lists for 1981-2010, 1971-2000, and 1961-1990 Normals.

If you haven't already, please take our survey and provide feedback about our website: https://eccc.sondage-survey.ca/f/LanguageSelection.aspx?s=442ca660-fcf1-47c0-95a9-59707d6fd709

Hourly Data Report for October 22, 2006

TORONTO CITY
ONTARIO

43°40'00.000" N
79°24'00.000" W
112.50 m
6158355
71508
XTO

Download Data

Hourly Data (October 2006)
Hourly Data Report for October 22, 2006
TIME
LST
Temp Definition
°C
Dew Point Definition
°C
Rel Hum Definition
%
Precip. Amount Definition
mm

Wind Dir Definition
10's deg

Wind Spd Definition
km/h
Visibility Definition
km
Stn Press Definition
kPa
Hmdx Definition


Wind Chill Definition


Weather Definition


00:00 9.2 7.7 90   LegendMM LegendMM   100.06     LegendNANA
01:00 9.4 8.0 91   LegendMM LegendMM   100.04     LegendNANA
02:00 9.2 8.3 94   LegendMM LegendMM   99.97     LegendNANA
03:00 9.4 8.7 95   LegendMM LegendMM   99.90     LegendNANA
04:00 9.5 9.2 98   LegendMM LegendMM   99.83     LegendNANA
05:00 9.4 9.1 98   LegendMM LegendMM   99.75     LegendNANA
06:00 9.4 9.1 98   LegendMM LegendMM   99.68     LegendNANA
07:00 9.4 8.9 97   LegendMM LegendMM   99.53     LegendNANA
08:00 9.0 8.5 97   LegendMM LegendMM   99.44     LegendNANA
09:00 9.0 8.5 97   LegendMM LegendMM   99.33     LegendNANA
10:00 9.1 8.7 97   LegendMM LegendMM   99.22     LegendNANA
11:00 9.1 8.5 96   LegendMM LegendMM   99.12     LegendNANA
12:00 10.0 9.0 93   LegendMM LegendMM   99.01     LegendNANA
13:00 10.2 8.9 92   LegendMM LegendMM   98.92     LegendNANA
14:00 9.8 9.2 96   LegendMM LegendMM   98.89     LegendNANA
15:00 10.1 9.5 96   LegendMM LegendMM   98.87     LegendNANA
16:00 10.1 9.2 94   LegendMM LegendMM   98.89     LegendNANA
17:00 10.2 9.2 94   LegendMM LegendMM   98.89     LegendNANA
18:00 10.2 8.9 92   LegendMM LegendMM   98.91     LegendNANA
19:00 10.2 8.7 90   LegendMM LegendMM   98.95     LegendNANA
20:00 9.9 8.2 89   LegendMM LegendMM   98.96     LegendNANA
21:00 9.7 7.6 87   LegendMM LegendMM   98.98     LegendNANA
22:00 9.3 7.6 89   LegendMM LegendMM   98.99     LegendNANA
23:00 8.2 6.1 87   LegendMM LegendMM   99.03     LegendNANA

Notes on Data Quality.

Legend

  • E = Estimated
  • M = Missing
  • NA = Not Available*
  • [empty] = Indicates an unobserved value
Date modified: